カタログに戻る

STARLINK-6235

運用中通信VLEO
NORAD 57094·PAYLOAD·🇺🇸 United States

打ち上げ Jun 22, 2023 から Vandenberg Space Force Base

Loading…

次のパス (今後24時間)

TLE

最新Source: CelesTrak SupGP

元期: Sep 15, 2026, 02:45 UTC

1 57094C 23088AY  26258.11506944  .00027048  00000+0  97956-3 0  2586
2 57094  42.9999 106.3340 0001520 266.5740 344.0913 15.27568817    19

AllMySatでSTARLINK-6235をリアルタイム追跡

Download on the App Store